TimeCST,TemperatureF,Dew PointF,Humidity,Sea Level PressureIn,VisibilityMPH,Wind Direction,Wind SpeedMPH,Gust SpeedMPH,PrecipitationIn,Events,Conditions,WindDirDegrees,DateUTC
12:15 AM,73.4,68.0,83,29.86,10.0,SE,12.7,-,N/A,,Scattered Clouds,130,2012-12-07 06:15:00
12:35 AM,73.4,68.0,83,29.86,10.0,SE,11.5,-,N/A,,Partly Cloudy,140,2012-12-07 06:35:00
12:55 AM,71.6,68.0,88,29.86,10.0,SSE,11.5,-,N/A,,Mostly Cloudy,160,2012-12-07 06:55:00
1:15 AM,73.4,68.0,83,29.86,10.0,SSE,10.4,-,N/A,,Mostly Cloudy,160,2012-12-07 07:15:00
1:35 AM,73.4,68.0,83,29.85,10.0,SSE,10.4,-,N/A,,Clear,160,2012-12-07 07:35:00
1:55 AM,73.4,68.0,83,29.84,10.0,SSE,11.5,-,N/A,,Clear,150,2012-12-07 07:55:00
2:15 AM,71.6,68.0,88,29.84,10.0,SSE,11.5,-,N/A,,Clear,150,2012-12-07 08:15:00
2:35 AM,71.6,68.0,88,29.84,10.0,SSE,11.5,-,N/A,,Clear,150,2012-12-07 08:35:00
2:55 AM,73.4,68.0,83,29.84,10.0,SSE,11.5,-,N/A,,Clear,160,2012-12-07 08:55:00
3:15 AM,73.4,68.0,83,29.84,10.0,SSE,10.4,-,N/A,,Clear,150,2012-12-07 09:15:00
3:35 AM,73.4,68.0,83,29.83,10.0,SSE,10.4,-,N/A,,Clear,150,2012-12-07 09:35:00
3:55 AM,71.6,68.0,88,29.83,10.0,SSE,10.4,-,N/A,,Clear,150,2012-12-07 09:55:00
4:15 AM,71.6,68.0,88,29.83,10.0,SSE,10.4,-,N/A,,Clear,150,2012-12-07 10:15:00
4:35 AM,71.6,68.0,88,29.83,10.0,SSE,10.4,-,N/A,,Clear,150,2012-12-07 10:35:00
4:55 AM,71.6,68.0,88,29.83,10.0,SSE,10.4,-,N/A,,Clear,150,2012-12-07 10:55:00
5:15 AM,71.6,68.0,88,29.83,10.0,SSE,10.4,-,N/A,,Clear,160,2012-12-07 11:15:00
5:35 AM,71.6,68.0,88,29.83,10.0,SSE,11.5,-,N/A,,Clear,150,2012-12-07 11:35:00
5:55 AM,73.4,68.0,83,29.83,10.0,SSE,12.7,-,N/A,,Clear,150,2012-12-07 11:55:00
6:15 AM,73.4,68.0,83,29.84,10.0,SSE,11.5,-,N/A,,Clear,150,2012-12-07 12:15:00
6:35 AM,73.4,68.0,83,29.84,10.0,SSE,10.4,-,N/A,,Clear,160,2012-12-07 12:35:00
6:55 AM,73.4,68.0,83,29.85,10.0,SSE,10.4,-,N/A,,Clear,150,2012-12-07 12:55:00
7:15 AM,73.4,68.0,83,29.85,10.0,SSE,11.5,-,N/A,,Clear,150,2012-12-07 13:15:00
7:35 AM,73.4,68.0,83,29.85,10.0,SSE,11.5,-,N/A,,Clear,150,2012-12-07 13:35:00
7:55 AM,73.4,68.0,83,29.86,10.0,SSE,11.5,-,N/A,,Clear,150,2012-12-07 13:55:00
8:15 AM,73.4,68.0,83,29.86,10.0,SE,11.5,-,N/A,,Clear,140,2012-12-07 14:15:00
8:35 AM,73.4,68.0,83,29.86,10.0,SE,12.7,-,N/A,,Clear,140,2012-12-07 14:35:00
8:55 AM,73.4,68.0,83,29.87,-9999.0,SSE,12.7,-,N/A,,Clear,150,2012-12-07 14:55:00
9:15 AM,73.4,68.0,83,29.88,8.0,SE,11.5,-,N/A,,Clear,140,2012-12-07 15:15:00
9:35 AM,73.4,68.0,83,29.88,10.0,SSE,11.5,-,N/A,,Clear,150,2012-12-07 15:35:00
9:55 AM,73.4,68.0,83,29.89,10.0,SSE,11.5,-,N/A,,Scattered Clouds,150,2012-12-07 15:55:00
10:15 AM,73.4,68.0,83,29.89,10.0,SSE,10.4,-,N/A,,Scattered Clouds,160,2012-12-07 16:15:00
10:35 AM,73.4,68.0,83,29.88,10.0,SSE,12.7,-,N/A,,Partly Cloudy,160,2012-12-07 16:35:00
10:55 AM,73.4,68.0,83,29.88,10.0,SSE,13.8,-,N/A,,Clear,160,2012-12-07 16:55:00
11:15 AM,73.4,68.0,83,29.87,10.0,South,12.7,-,N/A,,Clear,170,2012-12-07 17:15:00
11:35 AM,73.4,68.0,83,29.87,10.0,South,12.7,-,N/A,,Clear,170,2012-12-07 17:35:00
11:55 AM,73.4,68.0,83,29.86,10.0,South,11.5,-,N/A,,Clear,170,2012-12-07 17:55:00
12:15 PM,73.4,68.0,83,29.85,10.0,SSE,12.7,-,N/A,,Clear,160,2012-12-07 18:15:00
12:35 PM,73.4,68.0,83,29.84,10.0,SSE,11.5,-,N/A,,Clear,160,2012-12-07 18:35:00
12:55 PM,73.4,68.0,83,29.83,10.0,SSE,11.5,-,N/A,,Clear,160,2012-12-07 18:55:00
1:15 PM,73.4,69.8,88,29.82,10.0,SSE,11.5,-,N/A,,Clear,160,2012-12-07 19:15:00
1:35 PM,73.4,69.8,88,29.81,10.0,SSE,10.4,-,N/A,,Clear,150,2012-12-07 19:35:00
1:55 PM,73.4,69.8,88,29.80,10.0,SE,10.4,-,N/A,,Clear,140,2012-12-07 19:55:00
2:15 PM,75.2,69.8,83,29.80,10.0,SE,10.4,-,N/A,,Clear,130,2012-12-07 20:15:00
2:35 PM,75.2,69.8,83,29.80,10.0,SE,11.5,-,N/A,,Clear,140,2012-12-07 20:35:00
2:55 PM,75.2,69.8,83,29.79,10.0,SE,12.7,-,N/A,,Clear,140,2012-12-07 20:55:00
3:15 PM,75.2,69.8,83,29.79,9.0,SE,12.7,-,N/A,,Clear,140,2012-12-07 21:15:00
3:35 PM,75.2,68.0,78,29.79,10.0,SE,12.7,-,N/A,,Clear,140,2012-12-07 21:35:00
3:55 PM,75.2,69.8,83,29.79,10.0,SE,12.7,-,N/A,,Clear,140,2012-12-07 21:55:00
4:15 PM,75.2,69.8,83,29.79,10.0,SE,12.7,-,N/A,,Clear,140,2012-12-07 22:15:00
4:35 PM,75.2,69.8,83,29.79,10.0,SE,13.8,-,N/A,,Clear,140,2012-12-07 22:35:00
4:55 PM,73.4,69.8,88,29.79,10.0,SE,12.7,-,N/A,,Clear,130,2012-12-07 22:55:00
5:15 PM,73.4,69.8,88,29.79,10.0,SE,13.8,-,N/A,,Clear,130,2012-12-07 23:15:00
5:35 PM,73.4,69.8,88,29.80,10.0,SE,13.8,-,N/A,,Clear,140,2012-12-07 23:35:00
6:15 PM,73.4,69.8,88,29.80,10.0,SE,13.8,-,N/A,,Clear,140,2012-12-08 00:15:00
6:35 PM,73.4,69.8,88,29.80,10.0,SE,12.7,-,N/A,,Clear,130,2012-12-08 00:35:00
6:55 PM,73.4,69.8,88,29.81,10.0,SE,13.8,-,N/A,,Clear,140,2012-12-08 00:55:00
7:15 PM,73.4,69.8,88,29.81,10.0,SE,13.8,-,N/A,,Clear,140,2012-12-08 01:15:00
7:35 PM,73.4,69.8,88,29.81,10.0,SE,13.8,-,N/A,,Clear,140,2012-12-08 01:35:00
7:55 PM,73.4,69.8,88,29.82,10.0,SE,15.0,-,N/A,,Clear,140,2012-12-08 01:55:00
8:15 PM,73.4,69.8,88,29.83,10.0,SE,13.8,-,N/A,,Clear,140,2012-12-08 02:15:00
8:55 PM,73.4,69.8,88,29.84,10.0,SE,15.0,-,N/A,,Clear,140,2012-12-08 02:55:00
9:15 PM,73.4,69.8,88,29.84,10.0,SE,15.0,-,N/A,,Clear,140,2012-12-08 03:15:00
9:35 PM,73.4,69.8,88,29.84,10.0,SE,13.8,-,N/A,,Clear,140,2012-12-08 03:35:00
9:55 PM,73.4,69.8,88,29.84,10.0,SE,13.8,-,N/A,,Clear,140,2012-12-08 03:55:00
10:35 PM,73.4,68.0,83,29.85,10.0,SSE,15.0,-,N/A,,Clear,150,2012-12-08 04:35:00
10:55 PM,73.4,68.0,83,29.85,10.0,SE,12.7,-,N/A,,Clear,140,2012-12-08 04:55:00
11:15 PM,73.4,68.0,83,29.85,10.0,SE,11.5,-,N/A,,Clear,140,2012-12-08 05:15:00
11:35 PM,73.4,68.0,83,29.85,10.0,SE,11.5,-,N/A,,Clear,140,2012-12-08 05:35:00
11:55 PM,73.4,68.0,83,29.84,10.0,SE,12.7,-,N/A,,Clear,140,2012-12-08 05:55:00